Weather History for KTAN - October, 2010

Change the Weather History Date:

Sunday, October 3, 2010

  Actual Average Record
Temperature  
Mean Temperature 49 °F -  
Max Temperature 57 °F 67 °F 82 °F (1989)
Min Temperature 41 °F 45 °F 29 °F (1949)
Degree Days  
Heating Degree Days 16    
Moisture  
Dew Point 45 °F    
Average Humidity 78    
Maximum Humidity 100    
Minimum Humidity 67    
Precipitation  
Precipitation 0.00 in - - ()
Sea Level Pressure  
Sea Level Pressure 30.13 in    
Wind  
Wind Speed 4 mph (NNE)    
Max Wind Speed 13 mph    
Max Gust Speed 22 mph    
Visibility 10 miles    
Events Rain    
Averages and records for this station are not official NWS values.
T = Trace of Precipitation, MM = Missing Value Source: NWS Daily Summary

Daily Weather History Graph

Daily Weather History Graph

Search for Another Location

Airport or City:

Trip Planner

Search our weather history database for the weather conditions in past years. The results will help you decide how hot, cold, wet, or windy it might be!

Date:

Astronomy

Oct. 03, 2010 Rise Set
Actual Time 6:43 AM EDT 6:22 PM EDT
Civil Twilight 6:15 AM EDT 6:50 PM EDT
Nautical Twilight 5:42 AM EDT 7:22 PM EDT
Astronomical Twilight 5:10 AM EDT 7:54 PM EDT
Moon 1:30 AM EDT (10/3) 3:49 PM EDT (10/3)
Length of Visible Light 12h 34m
Length of Day
11h 39m
Waning Crescent, 23% of the Moon is Illuminated
Oct 3
Waning Crescent
Oct 7
New
Oct 14
First Quarter
Oct 22
Full
Oct 30
Last Quarter

Hourly Weather History & Observations

Time (EDT) Temp. Windchill Dew Point Humidity Pressure Visibility Wind Dir Wind Speed Gust Speed Precip Events Conditions
12:52 AM 42.1 °F - 41.0 °F 96% 30.07 in 10.0 mi Calm Calm - N/A   Clear
1:52 AM 41.0 °F - 39.9 °F 96% 30.09 in 10.0 mi Calm Calm - N/A   Clear
2:52 AM 41.0 °F - 39.9 °F 96% 30.09 in 10.0 mi Calm Calm - N/A   Clear
3:52 AM 42.1 °F 40.2 °F 41.0 °F 96% 30.09 in 10.0 mi West 3.5 mph - N/A   Clear
4:52 AM 41.0 °F - 41.0 °F 100% 30.09 in 10.0 mi Calm Calm - N/A   Clear
5:52 AM 42.1 °F - 41.0 °F 96% 30.10 in 10.0 mi Calm Calm - N/A   Clear
6:52 AM 43.0 °F - 42.1 °F 97% 30.11 in 10.0 mi Calm Calm - N/A   Clear
7:52 AM 46.0 °F - 45.0 °F 96% 30.13 in 10.0 mi Calm Calm - N/A   Clear
8:52 AM 52.0 °F - 48.0 °F 86% 30.14 in 10.0 mi North 3.5 mph - N/A   Clear
9:52 AM 57.0 °F - 50.0 °F 77% 30.15 in 10.0 mi Variable 4.6 mph - N/A   Partly Cloudy
10:52 AM 57.0 °F - 46.9 °F 69% 30.16 in 10.0 mi ENE 8.1 mph - N/A   Overcast
11:52 AM 57.0 °F - 48.0 °F 72% 30.16 in 10.0 mi NNE 4.6 mph - N/A   Overcast
12:52 PM 57.9 °F - 48.0 °F 70% 30.15 in 10.0 mi NNE 10.4 mph - N/A   Mostly Cloudy
1:49 PM 57.2 °F - 48.2 °F 72% 30.13 in 10.0 mi NNE 12.7 mph 21.9 mph N/A   Overcast
1:52 PM 57.0 °F - 48.0 °F 72% 30.14 in 10.0 mi NNE 12.7 mph 21.9 mph N/A   Overcast
2:11 PM 57.2 °F - 46.4 °F 67% 30.13 in 10.0 mi Variable 4.6 mph 17.3 mph N/A   Overcast
2:52 PM 57.9 °F - 46.9 °F 67% 30.13 in 10.0 mi NE 10.4 mph 18.4 mph N/A   Mostly Cloudy
3:14 PM 57.2 °F - 46.4 °F 67% 30.12 in 10.0 mi NNE 10.4 mph 18.4 mph N/A   Mostly Cloudy
3:26 PM 57.2 °F - 46.4 °F 67% 30.12 in 10.0 mi NNE 9.2 mph 18.4 mph N/A   Overcast
3:35 PM 57.2 °F - 46.4 °F 67% 30.12 in 10.0 mi NE 10.4 mph 18.4 mph N/A   Mostly Cloudy
3:43 PM 57.2 °F - 48.2 °F 72% 30.12 in 10.0 mi NNE 8.1 mph - N/A   Mostly Cloudy
3:52 PM 55.9 °F - 46.9 °F 72% 30.11 in 10.0 mi NNE 11.5 mph 19.6 mph N/A   Mostly Cloudy
4:23 PM 57.2 °F - 46.4 °F 67% 30.11 in 10.0 mi North 12.7 mph 19.6 mph N/A   Mostly Cloudy
4:52 PM 55.9 °F - 46.0 °F 69% 30.12 in 10.0 mi NNE 10.4 mph 20.7 mph N/A   Mostly Cloudy
5:18 PM 55.4 °F - 46.4 °F 72% 30.12 in 10.0 mi NNE 10.4 mph 20.7 mph N/A   Mostly Cloudy
5:52 PM 54.0 °F - 46.0 °F 75% 30.14 in 10.0 mi NNE 6.9 mph 19.6 mph N/A   Overcast
6:52 PM 54.0 °F - 46.0 °F 75% 30.14 in 10.0 mi Variable 4.6 mph - N/A   Overcast
7:52 PM 54.0 °F - 44.1 °F 69% 30.13 in 10.0 mi NE 8.1 mph 17.3 mph N/A   Partly Cloudy
8:52 PM 54.0 °F - 44.1 °F 69% 30.14 in 10.0 mi NE 9.2 mph 18.4 mph N/A   Mostly Cloudy
9:52 PM 55.0 °F - 45.0 °F 69% 30.16 in 10.0 mi NNE 6.9 mph - N/A   Partly Cloudy
10:52 PM 55.0 °F - 46.0 °F 72% 30.17 in 10.0 mi NE 5.8 mph - 0.00 in Rain Light Rain
11:52 PM 55.0 °F - 46.9 °F 74% 30.14 in 10.0 mi NNE 11.5 mph - 0.00 in   Mostly Cloudy